Location: Katzenstein
(51.7484°N, 10.2155°E)
Time: 19:51:02
(UTC+00:00)

Cosmos 2237 Rocket - Pass Details

Date: 17 February 2020
Orbit: 835 x 849 km, 71.0° (Epoch: 05 April)

Event Time Altitude Azimuth Distance (km) Brightness Sun altitude
Exits shadow 04:03:31 47° 301° (WNW) 1,096 2.4 -23.4°
Maximum altitude 04:03:45 48° 309° (NW) 1,092 2.5 -23.3°
Drops below altitude 10° 04:09:11 10° 24° (NNE) 2,459 5.0 -22.5°
Sets 04:11:44 0° 30° (NNE) 3,397 5.9 -22.1°
